Location: İstanbul
(41.0082°N, 28.9784°E)
Time: 17:41:24
(UTC+03:00)

Oscar 11 - Visible Passes

Search period start: 18 October 2021 00:00
Search period end: 28 October 2021 00:00
Orbit: 612 x 625 km, 97.6° (Epoch: 17 October)

Date Brightness Start Highest point End Pass type
(mag) Time Alt. Az. Time Alt. Az. Time Alt. Az.
18 Oct 9.1 05:58:30 10° NNE 06:02:22 31° E 06:06:14 10° SSE visible
19 Oct 8.2 06:15:07 10° NNE 06:19:19 48° E 06:23:30 10° S visible
19 Oct 10.2 18:46:25 10° SW 18:49:33 20° W 18:52:42 10° NW visible
20 Oct 7.3 06:31:53 10° NNE 06:36:14 76° ESE 06:40:33 10° S visible
20 Oct 10.6 19:04:38 10° WSW 19:06:35 13° W 19:08:32 10° WNW visible
21 Oct 10.7 05:16:17 10° E 05:16:32 10° E 05:16:46 10° E visible
21 Oct 7.0 06:48:47 10° N 06:53:05 69° WNW 06:57:24 10° SSW visible
22 Oct 10.2 05:30:56 10° NE 05:33:36 16° E 05:36:15 10° SE visible
23 Oct 9.6 05:47:04 10° NE 05:50:36 24° E 05:54:08 10° SSE visible
24 Oct 8.8 06:03:34 10° NNE 06:07:35 36° E 06:11:36 10° SSE visible
24 Oct 9.8 18:34:12 10° SSW 18:37:46 26° W 18:41:22 10° NW visible
25 Oct 7.8 06:20:14 10° NNE 06:24:31 57° E 06:28:47 10° S visible
25 Oct 10.3 18:51:58 10° SW 18:54:47 17° W 18:57:36 10° NW visible
26 Oct 7.1 06:37:03 10° NNE 06:41:24 89° ESE 06:45:45 10° SSW visible
26 Oct 10.8 19:10:42 10° WSW 19:11:49 11° W 19:12:57 10° WNW visible
27 Oct 10.5 05:20:06 10° ENE 05:21:47 12° E 05:23:28 10° ESE visible
27 Oct 7.1 06:53:58 10° N 06:58:15 59° WNW 07:02:31 10° SSW visible
